Vorticity
2 6 2 -3 6 5 3 0 -6 -11 9 2 -11 -10 -6 -7 -1 22 12 3 5 7 7 8 13 11 4 6 13 -8 1 -1 7 8 1 2 7 8 6 3 3 -1 9 20
6 7 10 13 11 9 10 4 5 11 10 8 2 3 11 22 11 9 8 7 4 2 10 10 -3 -7 -7 1 5 18 18 18 12 3 9 16 15 15 18 25 29 32 28 22
28 19 14 44 29 40 37 39 24 19 21 23 16 15 4 9 13 7 4 7 5 4 -2 -8 -0 11 17 25 30 28 26 6 5 2 21 10 5 21 26 18 16 18 18 19
1 16 25 28 10 15 12 11 18 24 14 4 3 4 0 8 3 0 10 11 -2 -7 -1 17 21 19 16 15 16 16 12 13 16 24 17 3 20 11 14 13 15 16 15 11
-1 22 -24 17 24 29 24 16 17 10 19 8 6 11 8 -15 -7 3 -1 -4 11 26 22 21 23 21 23 24 25 23 18 14 15 23 -8 21 17 12 11 11 12 13 12 12
21 3 -2 -4 3 5 -2 8 13 24 19 13 -3 -11 -11 17 9 9 17 22 24 20 17 15 11 7 9 6 4 6 10 13 20 18 19 11 7 6 12 10 10 9 9 7
3 -16 23 4 13 14 26 1 8 1 -6 -14 2 11 8 10 16 15 15 12 12 11 9 8 7 9 8 7 8 9 9 10 5 3 6 4 17 13 4 -5 12 10 9 7
28 11 24 8 5 9 1 1 -12 -14 4 13 14 11 13 12 11 11 9 8 7 9 9 8 4 1 7 4 11 14 15 14 11 10 9 7 5 11 11 12 12 8 8 9
-4 14 7 1 -4 -4 -5 -8 6 18 14 9 9 10 12 12 11 9 4 10 10 5 2 3 2 12 17 17 12 10 10 19 12 7 10 10 13 13 14 15 12 11 12 11
5 11 -0 10 11 6 -1 12 12 7 7 13 15 15 11 8 7 6 9 9 8 6 3 3 15 10 14 16 18 16 9 14 15 15 18 18 18 16 13 14 13 11 11 10
14 4 18 2 0 11 10 6 3 6 7 5 9 16 17 13 12 13 10 6 6 9 14 10 7 8 7 12 12 15 13 10 9 10 9 10 12 18 17 14 14 14 12 10
14 24 9 1 4 17 3 6 11 12 8 8 17 14 13 11 10 8 8 7 4 7 11 9 6 7 13 19 15 7 13 12 8 7 7 8 10 12 19 20 13 11 7 8
2 -0 8 17 12 1 10 10 6 4 12 13 16 13 11 9 7 6 7 10 8 8 9 10 11 15 20 20 18 14 8 8 9 7 7 5 5 11 12 20 16 12 7 5
15 16 11 7 8 10 7 5 9 14 9 9 8 7 5 5 6 8 11 12 12 14 16 18 21 22 23 17 15 13 11 11 10 8 8 8 9 10 8 7 9 10 8 8
15 9 7 3 5 4 2 8 16 12 8 6 6 5 8 8 11 12 11 13 18 21 19 21 17 13 22 20 13 15 18 18 20 21 21 21 19 14 10 7 6 8 10 12
-4 3 6 5 4 4 9 16 12 10 9 5 4 6 12 13 10 10 13 21 17 14 14 12 16 15 14 17 16 13 13 12 12 14 18 19 18 15 13 12 13 15 16 18
1 2 2 3 3 10 15 14 10 7 4 4 6 13 12 10 11 13 17 15 13 11 17 13 13 25 19 17 16 14 13 12 12 10 13 16 17 17 17 16 16 17 20 20
0 3 4 5 11 19 15 9 4 4 4 12 18 10 10 13 14 13 15 14 14 15 11 16 18 16 16 14 13 12 14 17 18 18 18 17 15 15 14 13 14 15 11 9
4 6 5 17 23 13 6 4 3 11 17 12 10 14 13 14 12 13 14 17 13 12 14 16 12 15 17 17 16 16 18 17 15 12 10 9 8 6 4 2 2 4 6 7
2 4 13 22 12 5 4 4 17 12 13 15 14 11 14 11 11 14 14 13 14 13 13 14 14 16 17 19 18 13 8 8 9 12 16 20 24 28 33 36 37 41 41 39
11 10 21 13 6 3 7 14 16 16 13 12 14 14 11 11 15 17 16 14 13 15 14 17 18 19 17 9 8 15 16 24 32 33 29 26 25 25 25 24 23 23 23 22
11 19 12 8 1 9 14 17 14 14 14 16 13 12 14 17 19 19 17 13 13 14 16 17 16 11 7 17 13 16 19 24 30 27 23 22 22 21 20 21 20 19 18 17
16 9 7 3 12 14 17 16 16 14 15 13 14 15 14 14 16 14 14 13 14 16 16 15 7 14 15 14 12 14 12 10 15 21 22 20 20 22 21 20 20 18 18 19
10 6 9 15 15 16 17 15 14 16 13 14 16 14 14 15 18 16 16 12 16 17 14 6 17 11 15 14 11 10 9 9 11 11 10 12 15 17 18 21 20 19 18 18
9 15 12 15 19 19 13 15 15 13 16 17 17 17 17 17 16 20 13 17 16 14 7 18 10 13 14 15 13 13 13 14 14 14 13 13 13 13 13 13 13 13 14 14
13 16 22 17 13 13 15 13 16 21 20 22 22 18 19 17 20 12 15 15 14 7 17 11 12 13 13 13 13 15 16 17 15 16 16 16 16 15 16 17 18 18 18 17
22 15 14 17 16 14 16 22 21 18 17 18 21 18 19 19 12 15 16 14 7 17 11 12 16 18 17 14 13 15 17 19 18 17 18 17 17 16 17 17 18 17 16 16
Height
3092 3093 3092 3092 3093 3093 3091 3088 3087 3083 3085 3090 3086 3081 3077 3074 3076 3075 3071 3068 3065 3062 3058 3056 3054 3051 3049 3045 3042 3038 3032 3027 3023 3019 3016 3014 3010 3006 3003 3000 2997 2993 2990 2988
3082 3086 3084 3080 3081 3082 3081 3080 3076 3079 3078 3079 3075 3073 3072 3071 3070 3066 3062 3061 3056 3054 3052 3048 3045 3041 3038 3034 3029 3023 3018 3014 3010 3005 3002 3000 2994 2990 2986 2983 2981 2978 2976 2973
3078 3078 3077 3071 3069 3069 3068 3070 3071 3070 3070 3068 3067 3065 3064 3065 3061 3055 3053 3051 3049 3046 3042 3037 3032 3026 3021 3018 3014 3009 3005 3001 2997 2991 2987 2983 2980 2978 2975 2971 2968 2965 2963 2962
3075 3075 3074 3065 3064 3064 3065 3065 3065 3064 3062 3062 3062 3060 3057 3057 3049 3048 3046 3043 3039 3035 3030 3025 3019 3014 3009 3004 3000 2996 2991 2987 2983 2978 2975 2971 2968 2966 2963 2961 2958 2956 2954 2953
3072 3068 3063 3060 3056 3058 3059 3061 3060 3061 3058 3056 3055 3053 3053 3050 3048 3044 3039 3034 3029 3023 3017 3011 3007 3003 2998 2993 2989 2984 2980 2976 2972 2969 2965 2963 2959 2956 2953 2951 2948 2946 2944 2943
3067 3066 3061 3053 3054 3054 3054 3053 3053 3053 3052 3051 3049 3045 3046 3041 3037 3033 3028 3022 3017 3012 3007 3002 2998 2993 2989 2984 2979 2975 2971 2965 2961 2959 2955 2951 2949 2946 2943 2941 2938 2936 2934 2933
3059 3059 3054 3047 3049 3049 3053 3054 3047 3047 3046 3044 3041 3039 3033 3028 3023 3018 3013 3009 3005 3001 2997 2993 2989 2984 2978 2973 2968 2965 2961 2956 2952 2949 2945 2942 2939 2936 2933 2930 2927 2925 2922 2921
3055 3054 3050 3045 3045 3048 3047 3044 3043 3042 3039 3034 3031 3028 3024 3019 3014 3009 3004 3000 2996 2991 2987 2983 2979 2974 2968 2962 2958 2952 2948 2943 2940 2937 2934 2930 2927 2924 2921 2919 2915 2913 2911 2909
3049 3044 3042 3039 3040 3040 3040 3039 3036 3035 3032 3027 3022 3018 3013 3008 3004 3000 2996 2991 2986 2982 2976 2972 2968 2962 2954 2949 2945 2941 2936 2931 2927 2924 2920 2916 2913 2910 2907 2905 2902 2899 2896 2894
3043 3041 3038 3035 3035 3035 3034 3032 3029 3026 3022 3018 3013 3008 3003 2999 2994 2990 2986 2982 2977 2972 2965 2959 2956 2950 2944 2938 2934 2928 2923 2918 2915 2911 2907 2904 2901 2897 2894 2892 2889 2886 2883 2880
3032 3034 3033 3031 3030 3030 3028 3025 3022 3018 3014 3010 3004 2999 2995 2989 2983 2979 2975 2971 2966 2961 2954 2947 2943 2937 2932 2927 2922 2916 2910 2906 2902 2899 2895 2891 2888 2884 2881 2879 2877 2874 2872 2869
3025 3025 3024 3025 3023 3020 3018 3016 3013 3008 3003 3000 2995 2989 2985 2980 2975 2970 2965 2960 2954 2948 2942 2935 2929 2922 2918 2913 2909 2903 2897 2893 2890 2887 2884 2880 2876 2871 2870 2866 2865 2863 2861 2858
3018 3018 3018 3018 3016 3013 3010 3008 3004 3000 2996 2991 2986 2981 2976 2970 2965 2960 2955 2949 2943 2935 2928 2921 2914 2908 2903 2898 2894 2889 2884 2880 2877 2874 2871 2867 2864 2860 2854 2854 2852 2850 2849 2846
3012 3011 3012 3011 3008 3006 3003 3000 2995 2991 2987 2982 2977 2972 2966 2960 2954 2949 2943 2937 2930 2922 2915 2908 2901 2894 2890 2885 2880 2876 2872 2868 2864 2860 2857 2854 2851 2847 2844 2840 2837 2835 2836 2833
3006 3005 3005 3003 3001 2998 2994 2989 2984 2981 2978 2973 2969 2963 2957 2950 2943 2937 2932 2925 2918 2910 2903 2896 2889 2883 2878 2873 2868 2864 2859 2855 2851 2846 2843 2840 2837 2834 2831 2828 2825 2821 2819 2817
3001 3000 2999 2996 2993 2990 2986 2980 2976 2971 2968 2963 2958 2952 2946 2939 2933 2927 2921 2914 2906 2899 2893 2886 2879 2873 2867 2862 2857 2853 2849 2845 2840 2835 2831 2827 2824 2821 2818 2815 2811 2808 2805 2803
2995 2994 2992 2988 2985 2980 2975 2971 2966 2962 2957 2952 2947 2941 2934 2929 2923 2917 2911 2904 2898 2891 2884 2877 2870 2864 2859 2854 2849 2844 2839 2834 2830 2826 2821 2817 2813 2809 2806 2803 2799 2796 2793 2792
2990 2988 2985 2980 2974 2970 2966 2962 2958 2953 2948 2942 2936 2930 2925 2919 2913 2906 2900 2894 2888 2882 2877 2870 2864 2858 2853 2848 2842 2836 2831 2825 2821 2816 2811 2807 2803 2799 2796 2792 2789 2786 2784 2783
2983 2980 2977 2972 2967 2962 2958 2954 2949 2944 2938 2932 2926 2920 2915 2910 2903 2897 2891 2885 2880 2874 2869 2863 2857 2852 2847 2842 2836 2830 2824 2819 2813 2808 2803 2799 2794 2791 2786 2783 2780 2777 2774 2771
2977 2973 2968 2963 2959 2955 2950 2946 2939 2933 2928 2922 2916 2911 2906 2900 2894 2889 2884 2879 2875 2868 2862 2857 2852 2846 2841 2836 2831 2825 2819 2813 2807 2800 2794 2789 2784 2780 2775 2772 2769 2765 2763 2761
2968 2964 2959 2954 2950 2946 2942 2936 2929 2923 2917 2913 2907 2902 2896 2890 2886 2881 2877 2872 2868 2863 2858 2853 2848 2842 2838 2833 2828 2822 2815 2807 2800 2793 2788 2783 2778 2774 2770 2767 2764 2762 2760 2758
2959 2954 2949 2945 2940 2935 2931 2925 2919 2913 2908 2904 2899 2893 2887 2882 2879 2875 2872 2866 2862 2858 2853 2849 2845 2840 2835 2830 2825 2820 2813 2806 2798 2792 2787 2782 2777 2773 2769 2767 2764 2762 2760 2758
2950 2945 2941 2936 2930 2924 2920 2915 2909 2904 2899 2895 2890 2884 2879 2875 2873 2867 2864 2863 2858 2854 2851 2847 2843 2838 2834 2830 2825 2820 2814 2808 2802 2795 2790 2785 2780 2776 2772 2769 2767 2764 2762 2761
2941 2937 2931 2926 2920 2914 2908 2904 2900 2896 2891 2886 2881 2876 2872 2868 2868 2863 2860 2857 2854 2852 2848 2845 2841 2837 2833 2829 2825 2821 2816 2811 2806 2800 2795 2790 2785 2781 2778 2774 2772 2769 2767 2765
2933 2927 2921 2915 2909 2904 2899 2894 2891 2886 2881 2878 2874 2870 2867 2863 2860 2859 2857 2855 2852 2850 2847 2844 2840 2837 2834 2830 2826 2822 2818 2814 2809 2804 2800 2796 2791 2788 2784 2781 2779 2777 2775 2772
2922 2916 2910 2905 2900 2895 2890 2886 2881 2878 2873 2870 2867 2864 2862 2859 2858 2856 2854 2853 2851 2849 2846 2843 2840 2837 2834 2831 2828 2824 2820 2816 2812 2808 2805 2801 2797 2794 2791 2789 2786 2784 2782 2780
2913 2907 2901 2897 2892 2887 2883 2878 2874 2871 2867 2864 2862 2859 2858 2857 2855 2854 2853 2852 2850 2848 2845 2843 2841 2838 2836 2833 2830 2827 2824 2821 2817 2814 2811 2808 2805 2802 2800 2797 2795 2792 2790 2788